Погода в Самутсакхоне

Таиланд     13°32′56″N   100°15′58″E
темп.,
°C
ветер,
м/с
пор.,
м/с
влажн.,
%
обл.,
%
осадки,
мм/ч
давл.,
гПа
погр.,
м
19 мая, ср
ср1901:00+30ю677462 0.1 1007594
04:00+29зюз347790 0.4 1005277
07:00+29зсз3470100 0.9 1008245
10:00+34зсз23535 0.0 1008841
13:00+36ю234786 0.0 10051652
16:00+33ююз765994 0.0 1004539
19:00+29зюз8117396 0.3 1006488
22:00+30ю6869100 0.1 1007425
20 мая, чт
чт2001:00+30ююз6873100 0.1 1006439
04:00+29сз2373100 0.0 1005213
07:00+29з236997 0.0 1007265
10:00+33ююз34568 0.0 1008892
13:00+34ююв5453100 0.0 10051101
16:00+32ю6662100 0.1 1003578
19:00+29ююз587296 2.3 1005362
22:00+30зюз4766100 0.1 1006369
21 мая, пт
пт2101:00+30юз3366100 0.1 1006290
04:00+29з226846 0.0 1005191
07:00+29зюз1264100 0.0 1006254
10:00+32ююз335337 0.0 1008801
13:00+33ююв645131 0.0 10051068
16:00+33ююв765688 0.1 1003625
19:00+28юз71080100 0.4 1005373
22:00+28юз4675100 0.3 1006392
22 мая, сб
сб2201:00+28ююз1273100 0.3 1005287
04:00+28ююв3375100 0.0 1004433
07:00+28ююз457396 0.0 1006525
10:00+31ююз556197 0.0 10071002
13:00+33ю765725 0.0 10041229
16:00+31ю9116397 0.7 1002920
19:00+29ююз101169100 0.8 1003800
22:00+29юз7971100 0.0 1005595
23 мая, вс
вс2301:00+28ююз6873100 0.0 1004633
04:00+28ююз5674100 0.1 1002561
07:00+27зсз4477100 0.4 1004401
10:00+29юз6771100 1.8 1005845
13:00+27юз4580100 3.8 1003541
16:00+26юз6891100 8.3 1002425
19:00+26юз7991100 16.3 1004477
22:00+25зюз71092100 7.4 1006452